User: anonymous   Login
Location: Hiekkapohja
(62.3333°N, 25.7833°E)
Time: 00:58:55
(UTC+00:00)
Language:

Cosmos 1354 Rocket - Orbit

View from above orbital plane
View from above orbital plane
View from above satellite
View from above satellite

Ground track
Ground track

The orbit data is extracted from the following two-line orbital elements,

1 13149U 82037B   20292.84983980  .00000062  00000-0  30552-4 0  9999
2 13149  74.0425 177.6482 0011989  82.3357 351.2550 14.35359562 12640
Epoch (UTC): 18 October 2020 20:23:46
Eccentricity: 0.0011989
inclination: 74.0425°
perigee height: 765 km
apogee height: 782 km
right ascension of ascending node: 177.6482°
argument of perigee: 82.3357°
revolutions per day: 14.35359562
mean anomaly at epoch: 351.2550°
orbit number at epoch: 1264

The dashed part of the orbit path shows where the satellite is in the earth's shadow,  

DLR